Regional Weather Roundup
Issued by NWS

Home | Current Version | Previous Version | Graphics & Text | Print | Product List | Glossary On
Versions: 1 2 3 4 5 6 7 8 9 10 11 12 13 14 15 16 17 18 19 20 21 22 23 24 25 26 27 28 29 30 31 32 33 34 35 36 37 38 39 40 41 42 43 44 45 46 47 48 49 50
000
ASUS45 KTFX 160410
RWRMT
MONTANA REGIONAL WEATHER ROUNDUP
NATIONAL WEATHER SERVICE GREAT FALLS MT
900 PM MST FRI DEC 15 2017

NOTE: "FAIR" INDICATES FEW OR NO CLOUDS BELOW 12000 FEET WITH NO
SIGNIFICANT WEATHER AND/OR OBSTRUCTIONS TO VISIBILITY.

MTZ001>007-043-160500-
WEST OF THE DIVIDE

CITY           SKY/WX    TMP DP  RH WIND       PRES   REMARKS
KALISPELL      CLOUDY    29  28  96 SW5       29.97F FOG
MISSOULA       LGT SNOW  29  28  96 CALM      29.97S FOG
BUTTE          CLOUDY    28  20  71 NW7       29.87S WCI  21
MULLAN PASS    CLOUDY    20  19  96 S3        29.89F
ANACONDA         N/A     27  25  93 W3        29.90S
DEER LODGE       N/A     27  27 100 CALM      29.91F
EUREKA           N/A     28  27  93 MISG      29.99S
HAMILTON         N/A     27  25  93 CALM      29.95F
LIBBY            N/A     27  27 100 CALM      29.99S
RONAN            N/A     28  26  92 CALM      30.01S
$$

MTZ008-052>055-160500-
SOUTHWEST MONTANA

CITY           SKY/WX    TMP DP  RH WIND       PRES   REMARKS
BOZEMAN        CLOUDY    25  23  92 CALM      29.85S
DILLON         MOCLDY    29  19  66 S12       29.85S WCI  19
W YELLOWSTONE  CLOUDY    25  19  80 W6        29.95S WCI  18
ENNIS          CLOUDY    34  21  60 S25G36    29.90F WCI  21
THREE FORKS      N/A     31  25  78 CALM      29.86R
$$

MTZ009-010-012-014-046-048-049-054-160500-
EAST SLOPES AND CENTRAL MONTANA

CITY           SKY/WX    TMP DP  RH WIND       PRES   REMARKS
CUT BANK       CLOUDY    31  29  92 N9        29.84R WCI  23
GREAT FALLS    CLOUDY    35  27  72 N14       29.85R WCI  26
MALMSTROM AFB  MOCLDY    35  29  81 N15       29.85R WCI  25
HELENA         CLOUDY    25  23  92 SW5       29.87R
BOWMANS CRNR   CLOUDY    35  26  68 SW7       29.81R WCI  29
CHOTEAU          N/A     30  25  80 NE8       29.86R WCI  23
FAIRFIELD      MOCLDY    33  25  73 NE7       29.84  WCI  26
POWER          MOCLDY    31  26  81 NE5       29.84R
RAYNESFORD     CLOUDY    38  25  58 NW12      29.82  WCI  31
ULM            CLOUDY    39  25  56 N7        29.83
$$

MTZ011-013-016-021-045-047-050-051-160500-
NORTH CENTRAL MONTANA

CITY           SKY/WX    TMP DP  RH WIND       PRES   REMARKS
HAVRE          LGT SNOW  32  32 100 SE6       29.85R VSB 1   WCI  26
LEWISTOWN      CLOUDY    36  29  75 NW13      29.79R WCI  27
N BAR RANCH    CLOUDY    37  25  60 NW9       29.79R WCI  31
CHINOOK          N/A     34  34 100 W7        29.85R WCI  28
DENTON         MOCLDY    35  30  83 NW16      29.79R WCI  25
GEYSER         MOCLDY    34  30  86 N12       29.81R WCI  25
GRASS RANGE    MOCLDY    40  28  60 N8        29.75R
STANFORD       DRIZZLE   33  31  90 N8        29.81R WCI  27
WINIFRED       MOCLDY    37  29  74 NE10      29.80R WCI  29
$$

MTZ017>020-022>027-061-062-160500-
NORTHEAST MONTANA

CITY           SKY/WX    TMP DP  RH WIND       PRES   REMARKS
GLASGOW        CLOUDY    38  32  79 NW15      29.72R WCI  29
GLENDIVE       CLOUDY    44  25  47 NW15      29.65R
JORDAN           N/A     39  32  76 N15       29.73R WCI  31
WOLF POINT     LGT RAIN  42  33  70 N16       29.68R
MALTA          CLOUDY    36  32  87 NW14G22   29.81R WCI  27
PLENTYWOOD       N/A     37  34  87 W14       29.62R WCI  29
POPLAR           N/A     41  34  75 N12       29.67R
$$

MTZ028>42-056>058-160500-
SOUTHCENTRAL AND SOUTHEAST MONTANA

CITY           SKY/WX    TMP DP  RH WIND       PRES   REMARKS
BAKER          FAIR      38  24  57 W12       29.64R WCI  30
BILLINGS       CLOUDY    47  19  33 W12       29.76R
LIVINGSTON     CLOUDY    41  22  46 SW33G40   29.78R
MILES CITY     FAIR      40  21  46 W8        29.67R
BIG TIMBER     MOCLDY    43  18  36 W38G46    29.76R
FORSYTH          N/A     45  18  33 W7        29.69R
LAUREL           N/A     41  19  42 W8        29.77R
ROUNDUP          N/A     44  21  40 NW18      29.69R
$$

REGIONAL REPORTS...DAKOTAS

CITY           SKY/WX    TMP DP  RH WIND       PRES   REMARKS
WILLISTON      LGT RAIN  41  34  75 W10       29.62R
MINOT          CLOUDY    41  33  73 W8        29.54R
DICKINSON      FAIR      31  22  69 W9        29.58S WCI  23
BEACH          CLOUDY    39  23  52 W12       29.64S WCI  32
CROSBY         MOCLDY    37  36  93 NW16G23   29.58R WCI  28
TIOGA          LGT RAIN  36  36 100 W14G21    29.60R WCI  27
WATFORD CITY   MOCLDY    41  32  70 NW10      29.60R
BISMARCK       CLOUDY    41  30  65 W7        29.58R
GRAND FORKS    LGT SNOW  22  20  92 E13       29.61F FOG     WCI  10
FARGO          CLOUDY    30  28  92 SE13      29.58F WCI  20
BUFFALO SD       N/A     38  21  50 NW9       29.58R WCI  31
RAPID CITY     FAIR      38  15  39 SW5       29.67S
$$

REGIONAL REPORTS...WYOMING/IDAHO/WASHINGTON

CITY           SKY/WX    TMP DP  RH WIND       PRES   REMARKS
GILLETTE       FAIR      41  20  43 SW5       29.70R
SHERIDAN       FAIR      33  24  69 N6        29.70R WCI  28
BUFFALO WY     FAIR      46  11  24 NW3       29.70S
YELLOWSTONE LA   N/A     18  16  92 CALM      29.95F
IDAHO FALLS    FAIR      24  23  96 NE3       29.99F
SALMON         CLOUDY    25  21  85 CALM      30.01F
BOISE          LGT SNOW  27  24  89 NW8       30.13S VSB 1   WCI  19
SPOKANE        LGT SNOW  25  24  96 CALM      30.09S FOG
$$

REGIONAL REPORTS...ALBERTA

CITY           SKY/WX    TMP DP  RH WIND       PRES   REMARKS
EDMONTON       PTCLDY    30  16  55 W13       29.75R WCI  20
CALGARY        CLOUDY    34  18  51 SW3       29.82R
LETHBRIDGE     CLOUDY    32  32 100 SW5       29.86R
MEDICINE HAT   MOCLDY    30  30 100 W8        29.82R WCI  23
$$

REGIONAL REPORTS...SASKATCHEWAN

CITY           SKY/WX    TMP DP  RH WIND       PRES   REMARKS
SWIFT CURRENT  CLEAR     30  23  74 NW21G26   29.67R WCI  17
REGINA         FLURRIES  36  30  80 NW17G25   29.58R WCI  25
SASKATOON      PTCLDY    36  30  80 NW22      29.59R WCI  24
$$



USA.gov is the U.S. government's official web portal to all federal, state and local government web resources and services.